This is the latest recevied weather packets stored in our database for station/object KM4NDN. If no packets are shown the sender has not sent any weather packets the latest 10 day(s).
| Time | Temp. | Humidity | Pressure | Rain* | Wind** | Luminosity | Snow |
|---|---|---|---|---|---|---|---|
| 1778095035 | 13.33° C | 46% | 1010.9 hPa | 0 mm | - | 413 W/m² | - |
| 1778094731 | 13.33° C | 46% | 1010.9 hPa | 0 mm | - | 447 W/m² | - |
| 1778094428 | 13.89° C | 47% | 1010.5 hPa | 0 mm | - | 526 W/m² | - |
| 1778094125 | 13.89° C | 43% | 1010.7 hPa | 0 mm | - | 477 W/m² | - |
| 1778093822 | 13.33° C | 45% | 1010.4 hPa | 0 mm | - | 581 W/m² | - |
| 1778093518 | 13.33° C | 43% | 1010.5 hPa | 0 mm | - | 973 W/m² | - |
| 1778093216 | 13.33° C | 44% | 1010.5 hPa | 0 mm | - | 475 W/m² | - |
| 1778092913 | 13.33° C | 45% | 1010.5 hPa | 0 mm | - | 451 W/m² | - |
| 1778092610 | 13.33° C | 46% | 1010.5 hPa | 0 mm | - | 435 W/m² | - |
| 1778092306 | 13.33° C | 45% | 1010.7 hPa | 0 mm | - | 321 W/m² | - |
| 1778092003 | 13.33° C | 46% | 1010.5 hPa | 0 mm | - | 551 W/m² | - |
| 1778091700 | 13.33° C | 46% | 1010.6 hPa | 0 mm | - | 381 W/m² | - |
| 1778091398 | 13.33° C | 44% | 1010.6 hPa | 0 mm | - | 754 W/m² | - |
| 1778091095 | 13.33° C | 47% | 1010.7 hPa | 0 mm | - | 465 W/m² | - |
| 1778090792 | 13.33° C | 44% | 1010.6 hPa | 0 mm | - | 767 W/m² | - |
| 1778090488 | 12.78° C | 48% | 1010.6 hPa | 0 mm | - | 893 W/m² | - |
| 1778090184 | 12.78° C | 46% | 1010.6 hPa | 0 mm | - | 617 W/m² | - |
| 1778089880 | 12.78° C | 42% | 1010.7 hPa | 0 mm | - | 564 W/m² | - |
| 1778089580 | 12.78° C | 45% | 1010.9 hPa | 0 mm | - | 626 W/m² | - |
| 1778089276 | 12.78° C | 46% | 1010.9 hPa | 0 mm | - | 549 W/m² | - |
| 1778088974 | 12.78° C | 43% | 1010.8 hPa | 0 mm | - | 522 W/m² | - |
| 1778088670 | 13.33° C | 48% | 1010.9 hPa | 0 mm | - | 474 W/m² | - |
| 1778088368 | 12.78° C | 47% | 1010.7 hPa | 0 mm | - | 422 W/m² | - |
| 1778088064 | 12.78° C | 50% | 1010.8 hPa | 0 mm | - | 492 W/m² | - |
| 1778087761 | 12.78° C | 49% | 1010.7 hPa | 0 mm | - | 847 W/m² | - |
* Rain latest hour (hover to see other rain measurements)
** Current wind speed in m/s (hover to see current wind gust speed)